�������l�o���
Date,Time,MP-1(��Sv/h),MP-2(��Sv/h),MP-3(��Sv/h),MP-4(��Sv/h),MP-5(��Sv/h),MP-6(��Sv/h),MP-7(��Sv/h),MP-8(��Sv/h),����,����(m/s),���J
2020/12/29,00:00,0.681,0.971,0.617,1.224,0.861,0.382,0.677,0.636,��쓌,1.2,��
2020/12/29,00:10,0.680,0.970,0.616,1.226,0.862,0.382,0.676,0.637,���쐼,0.9,��
2020/12/29,00:20,0.679,0.973,0.618,1.226,0.861,0.382,0.677,0.638,�k��,1.2,��
2020/12/29,00:30,0.679,0.971,0.616,1.227,0.864,0.381,0.676,0.636,�k��,0.6,��
2020/12/29,00:40,0.679,0.973,0.615,1.227,0.860,0.382,0.677,0.639,��,1.5,��
2020/12/29,00:50,0.680,0.972,0.617,1.226,0.862,0.382,0.676,0.638,���k��,1.2,��
2020/12/29,01:00,0.679,0.970,0.616,1.227,0.861,0.381,0.676,0.637,�k��,1.5,��
2020/12/29,01:10,0.678,0.972,0.617,1.228,0.862,0.381,0.676,0.636,�k�k��,2.2,��
2020/12/29,01:20,0.679,0.973,0.616,1.226,0.862,0.382,0.678,0.638,�k�k��,4.0,��
2020/12/29,01:30,0.681,0.972,0.616,1.227,0.859,0.382,0.677,0.638,�k�k��,6.5,��
2020/12/29,01:40,0.681,0.974,0.618,1.227,0.862,0.384,0.678,0.638,�k,7.0,��
2020/12/29,01:50,0.681,0.970,0.618,1.228,0.862,0.382,0.678,0.638,�k,6.5,��
2020/12/29,02:00,0.679,0.975,0.616,1.228,0.863,0.383,0.678,0.638,�k,7.6,��
2020/12/29,02:10,0.678,0.973,0.616,1.228,0.863,0.382,0.678,0.637,�k�k��,8.3,��
2020/12/29,02:20,0.679,0.972,0.616,1.228,0.860,0.382,0.678,0.636,�k,8.0,��
2020/12/29,02:30,0.678,0.972,0.615,1.228,0.861,0.383,0.678,0.638,�k�k��,6.5,��
2020/12/29,02:40,0.679,0.971,0.617,1.228,0.863,0.381,0.676,0.639,�k,6.1,��
2020/12/29,02:50,0.680,0.972,0.615,1.229,0.861,0.383,0.677,0.637,�k,6.2,��
2020/12/29,03:00,0.679,0.972,0.616,1.227,0.861,0.382,0.677,0.638,�k,6.2,��
2020/12/29,03:10,0.681,0.971,0.617,1.226,0.861,0.381,0.677,0.636,�k,6.0,��
2020/12/29,03:20,0.679,0.972,0.617,1.226,0.861,0.381,0.678,0.639,�k,3.9,��
2020/12/29,03:30,0.680,0.971,0.616,1.227,0.859,0.383,0.677,0.637,�k,3.8,��
2020/12/29,03:40,0.681,0.971,0.615,1.226,0.862,0.382,0.678,0.637,�k�k��,2.6,��
2020/12/29,03:50,0.681,0.973,0.616,1.225,0.859,0.382,0.676,0.638,�k�k��,3.3,��
2020/12/29,04:00,0.679,0.971,0.615,1.227,0.860,0.381,0.675,0.638,�k��,3.2,��
2020/12/29,04:10,0.680,0.970,0.616,1.226,0.860,0.381,0.675,0.637,�k��,2.3,��
2020/12/29,04:20,0.679,0.971,0.615,1.225,0.861,0.382,0.676,0.637,�k��,2.2,��
2020/12/29,04:30,0.681,0.971,0.617,1.226,0.860,0.382,0.677,0.639,�k��,2.2,��
2020/12/29,04:40,0.680,0.972,0.614,1.225,0.859,0.383,0.677,0.636,�k�k��,1.7,��
2020/12/29,04:50,0.680,0.969,0.614,1.226,0.861,0.383,0.677,0.637,�k,0.6,��
2020/12/29,05:00,0.681,0.971,0.615,1.224,0.861,0.381,0.676,0.638,���k��,0.9,��
2020/12/29,05:10,0.681,0.970,0.616,1.223,0.861,0.383,0.677,0.638,���k��,0.9,��
2020/12/29,05:20,0.678,0.968,0.617,1.225,0.858,0.382,0.675,0.638,���k��,1.1,��
2020/12/29,05:30,0.678,0.969,0.615,1.224,0.861,0.382,0.676,0.639,��,2.0,��
2020/12/29,05:40,0.679,0.968,0.615,1.225,0.860,0.382,0.676,0.637,��,2.3,��
2020/12/29,05:50,0.678,0.969,0.616,1.225,0.860,0.382,0.676,0.637,���쐼,1.4,��
2020/12/29,06:00,0.679,0.970,0.615,1.225,0.860,0.381,0.676,0.636,���k��,1.4,��
2020/12/29,06:10,0.679,0.972,0.615,1.225,0.859,0.382,0.677,0.638,�k��,1.4,��
2020/12/29,06:20,0.677,0.970,0.614,1.226,0.858,0.382,0.675,0.638,���k��,1.7,��
2020/12/29,06:30,0.679,0.971,0.615,1.225,0.859,0.382,0.675,0.637,�k��,1.5,��
2020/12/29,06:40,0.681,0.969,0.617,1.225,0.860,0.382,0.676,0.637,�k��,0.8,��
2020/12/29,06:50,0.681,0.972,0.615,1.228,0.858,0.381,0.675,0.638,�k��,1.9,��
2020/12/29,07:00,0.678,0.971,0.614,1.225,0.859,0.383,0.677,0.637,�k��,1.5,��
2020/12/29,07:10,0.678,0.971,0.617,1.226,0.861,0.382,0.677,0.638,�k��,1.4,��
2020/12/29,07:20,0.679,0.969,0.615,1.227,0.858,0.383,0.676,0.638,�k�k��,1.5,��
2020/12/29,07:30,0.678,0.969,0.616,1.226,0.857,0.382,0.675,0.637,�k,1.7,��
2020/12/29,07:40,0.680,0.969,0.616,1.227,0.861,0.381,0.676,0.636,�k�k��,1.9,��
2020/12/29,07:50,0.678,0.970,0.616,1.228,0.859,0.382,0.676,0.637,�k�k��,1.9,��
2020/12/29,08:00,0.679,0.970,0.616,1.224,0.859,0.383,0.676,0.636,�k�k��,2.5,��
2020/12/29,08:10,0.679,0.968,0.615,1.226,0.860,0.383,0.678,0.637,�k�k��,3.5,��
2020/12/29,08:20,0.679,0.970,0.616,1.226,0.860,0.382,0.677,0.637,�k��,3.4,��
2020/12/29,08:30,0.680,0.970,0.615,1.226,0.861,0.381,0.677,0.638,�k�k��,3.0,��
2020/12/29,08:40,0.680,0.971,0.616,1.225,0.860,0.382,0.678,0.637,�k�k��,3.5,��
2020/12/29,08:50,0.680,0.972,0.616,1.227,0.860,0.381,0.678,0.638,�k�k��,3.1,��
2020/12/29,09:00,0.681,0.972,0.618,1.225,0.861,0.382,0.677,0.638,�k�k��,2.5,��
2020/12/29,09:10,0.681,0.972,0.616,1.227,0.861,0.382,0.678,0.640,�k�k��,2.3,��
2020/12/29,09:20,0.682,0.970,0.618,1.228,0.860,0.382,0.678,0.638,�k�k��,1.9,��
2020/12/29,09:30,0.683,0.974,0.617,1.226,0.863,0.382,0.678,0.638,�k,1.4,��
2020/12/29,09:40,0.682,0.975,0.617,1.227,0.860,0.382,0.679,0.639,�k,1.4,��
2020/12/29,09:50,0.680,0.972,0.617,1.227,0.861,0.382,0.677,0.638,�k�k��,1.9,��
2020/12/29,10:00,0.681,0.971,0.618,1.228,0.861,0.383,0.678,0.640,�k��,2.3,��
2020/12/29,10:10,0.682,0.971,0.615,1.227,0.863,0.382,0.676,0.638,�k�k��,2.6,��
2020/12/29,10:20,0.682,0.971,0.615,1.227,0.860,0.382,0.678,0.637,�k��,3.0,��
2020/12/29,10:30,0.682,0.972,0.616,1.227,0.862,0.384,0.678,0.638,���k��,3.3,��
2020/12/29,10:40,0.681,0.970,0.614,1.226,0.863,0.382,0.676,0.639,���k��,3.0,��
2020/12/29,10:50,0.681,0.970,0.619,1.226,0.865,0.383,0.676,0.638,���쓌,3.0,��
2020/12/29,11:00,0.683,0.973,0.618,1.227,0.863,0.383,0.677,0.640,���쓌,3.6,��
2020/12/29,11:10,0.682,0.971,0.616,1.228,0.862,0.383,0.677,0.639,�쓌,2.6,��
2020/12/29,11:20,0.682,0.973,0.618,1.227,0.864,0.382,0.676,0.638,�쓌,2.6,��
2020/12/29,11:30,0.680,0.973,0.619,1.226,0.863,0.382,0.676,0.638,�쓌,2.9,��
2020/12/29,11:40,0.683,0.975,0.618,1.227,0.863,0.382,0.677,0.638,�쓌,3.6,��
2020/12/29,11:50,0.681,0.972,0.617,1.229,0.862,0.384,0.677,0.638,��쓌,3.4,��
2020/12/29,12:00,0.682,0.974,0.618,1.229,0.866,0.384,0.679,0.639,��쓌,4.7,��
2020/12/29,12:10,0.683,0.973,0.619,1.228,0.865,0.383,0.677,0.639,�쓌,3.4,��
2020/12/29,12:20,0.682,0.976,0.618,1.226,0.862,0.383,0.680,0.640,��쓌,4.5,��
2020/12/29,12:30,0.682,0.974,0.621,1.226,0.865,0.384,0.678,0.639,��쓌,5.6,��
2020/12/29,12:40,0.681,0.974,0.620,1.228,0.863,0.385,0.677,0.640,��쓌,5.7,��
2020/12/29,12:50,0.684,0.974,0.618,1.226,0.866,0.383,0.680,0.637,��쓌,5.8,��
2020/12/29,13:00,0.681,0.975,0.618,1.228,0.864,0.385,0.678,0.638,��쓌,4.9,��
2020/12/29,13:10,0.682,0.975,0.619,1.231,0.865,0.384,0.680,0.636,��쓌,4.1,��
2020/12/29,13:20,0.680,0.975,0.620,1.228,0.864,0.382,0.679,0.637,��쓌,4.7,��
2020/12/29,13:30,0.682,0.974,0.619,1.229,0.866,0.385,0.678,0.636,��쓌,4.9,��
2020/12/29,13:40,0.682,0.974,0.618,1.229,0.866,0.384,0.679,0.637,��쓌,5.3,��
2020/12/29,13:50,0.683,0.975,0.618,1.228,0.865,0.384,0.677,0.637,��쓌,5.4,��
2020/12/29,14:00,0.682,0.976,0.617,1.229,0.866,0.383,0.677,0.638,��쓌,5.4,��
2020/12/29,14:10,0.682,0.976,0.618,1.229,0.865,0.386,0.678,0.638,��쓌,5.6,��
2020/12/29,14:20,0.682,0.976,0.617,1.227,0.866,0.385,0.680,0.638,��쓌,4.8,��
2020/12/29,14:30,0.683,0.977,0.619,1.227,0.863,0.383,0.678,0.639,��쓌,4.8,��
2020/12/29,14:40,0.686,0.978,0.618,1.229,0.865,0.384,0.677,0.640,�쓌,4.3,��
2020/12/29,14:50,0.683,0.976,0.618,1.228,0.864,0.384,0.678,0.639,��쓌,3.6,��
2020/12/29,15:00,0.684,0.979,0.619,1.227,0.865,0.383,0.677,0.638,��쓌,3.9,��
2020/12/29,15:10,0.682,0.978,0.618,1.227,0.865,0.383,0.678,0.637,��쓌,2.8,��
2020/12/29,15:20,0.682,0.979,0.620,1.231,0.866,0.383,0.678,0.639,��쓌,4.2,��
2020/12/29,15:30,0.682,0.979,0.617,1.228,0.865,0.383,0.677,0.638,��쓌,4.3,��
2020/12/29,15:40,0.685,0.978,0.618,1.229,0.866,0.384,0.678,0.640,��쓌,4.5,��
2020/12/29,15:50,0.684,0.980,0.618,1.228,0.864,0.384,0.680,0.639,��쓌,4.8,��
2020/12/29,16:00,0.683,0.977,0.618,1.229,0.866,0.385,0.678,0.638,��쓌,4.2,��
2020/12/29,16:10,0.684,0.979,0.618,1.230,0.865,0.383,0.678,0.639,��쓌,4.1,��
2020/12/29,16:20,0.683,0.977,0.619,1.229,0.866,0.384,0.679,0.638,��쓌,4.6,��
2020/12/29,16:30,0.683,0.978,0.616,1.228,0.866,0.382,0.679,0.638,��쓌,5.2,��
2020/12/29,16:40,0.684,0.977,0.617,1.228,0.863,0.383,0.679,0.639,��쓌,6.2,��
2020/12/29,16:50,0.684,0.977,0.618,1.230,0.863,0.385,0.680,0.639,��쓌,8.1,��
2020/12/29,17:00,0.683,0.976,0.617,1.228,0.864,0.383,0.678,0.640,��,9.3,��
2020/12/29,17:10,0.683,0.977,0.618,1.225,0.866,0.384,0.680,0.638,��,6.9,��
2020/12/29,17:20,0.682,0.977,0.617,1.226,0.864,0.384,0.678,0.640,��,6.2,��
2020/12/29,17:30,0.683,0.977,0.618,1.229,0.865,0.385,0.680,0.638,��,6.0,��
2020/12/29,17:40,0.683,0.975,0.620,1.230,0.864,0.385,0.679,0.637,��,5.8,��
2020/12/29,17:50,0.684,0.976,0.618,1.226,0.864,0.384,0.680,0.639,��,5.0,��
2020/12/29,18:00,0.683,0.979,0.620,1.226,0.864,0.383,0.679,0.639,��,5.8,��
2020/12/29,18:10,0.683,0.975,0.619,1.228,0.864,0.385,0.680,0.639,��쐼,5.4,��
2020/12/29,18:20,0.685,0.977,0.619,1.230,0.864,0.385,0.679,0.640,��쐼,7.4,��
2020/12/29,18:30,0.683,0.977,0.618,1.225,0.864,0.383,0.679,0.639,��,7.3,��
2020/12/29,18:40,0.685,0.977,0.619,1.230,0.863,0.384,0.679,0.640,��,7.9,��
2020/12/29,18:50,0.682,0.974,0.618,1.230,0.867,0.383,0.679,0.639,��,8.0,��
2020/12/29,19:00,0.683,0.976,0.618,1.228,0.864,0.384,0.680,0.640,��,7.2,��
2020/12/29,19:10,0.684,0.976,0.619,1.229,0.863,0.383,0.680,0.640,��,7.7,��
2020/12/29,19:20,0.683,0.975,0.618,1.227,0.863,0.384,0.679,0.639,��,6.8,��
2020/12/29,19:30,0.682,0.976,0.619,1.225,0.863,0.383,0.679,0.639,��,7.7,��
2020/12/29,19:40,0.685,0.974,0.620,1.228,0.864,0.384,0.681,0.639,��,7.3,��
2020/12/29,19:50,0.684,0.976,0.618,1.230,0.864,0.384,0.680,0.637,��,6.8,��
2020/12/29,20:00,0.685,0.974,0.618,1.230,0.864,0.384,0.679,0.639,��,7.0,��
2020/12/29,20:10,0.684,0.977,0.617,1.229,0.866,0.384,0.680,0.640,��,7.4,��
2020/12/29,20:20,0.683,0.975,0.619,1.228,0.863,0.386,0.680,0.639,��,7.4,��
2020/12/29,20:30,0.684,0.975,0.619,1.228,0.867,0.383,0.679,0.638,��,6.9,��
2020/12/29,20:40,0.684,0.975,0.617,1.227,0.866,0.384,0.681,0.638,��,6.9,��
2020/12/29,20:50,0.684,0.975,0.618,1.230,0.866,0.384,0.681,0.639,��,7.4,��
2020/12/29,21:00,0.683,0.975,0.618,1.228,0.863,0.384,0.679,0.637,��,6.6,��
2020/12/29,21:10,0.684,0.977,0.619,1.227,0.863,0.385,0.682,0.639,��,4.8,��
2020/12/29,21:20,0.685,0.975,0.618,1.230,0.864,0.384,0.680,0.638,��,4.5,��
2020/12/29,21:30,0.682,0.973,0.618,1.226,0.865,0.384,0.678,0.639,��,4.8,��
2020/12/29,21:40,0.682,0.974,0.618,1.226,0.862,0.385,0.680,0.640,��,4.7,��
2020/12/29,21:50,0.686,0.975,0.617,1.226,0.863,0.384,0.680,0.637,��,4.0,��
2020/12/29,22:00,0.684,0.975,0.619,1.227,0.864,0.384,0.680,0.641,��쐼,3.1,��
2020/12/29,22:10,0.686,0.974,0.618,1.229,0.865,0.386,0.679,0.639,��,3.1,��
2020/12/29,22:20,0.686,0.975,0.618,1.228,0.865,0.385,0.680,0.637,��,3.3,��
2020/12/29,22:30,0.685,0.977,0.619,1.228,0.865,0.385,0.680,0.640,��쓌,3.8,��
2020/12/29,22:40,0.685,0.974,0.619,1.226,0.865,0.386,0.680,0.640,��쓌,4.0,��
2020/12/29,22:50,0.686,0.976,0.619,1.228,0.865,0.385,0.680,0.640,��쓌,4.4,��
2020/12/29,23:00,0.685,0.976,0.619,1.228,0.866,0.385,0.680,0.638,��,4.1,��
2020/12/29,23:10,0.685,0.974,0.619,1.227,0.864,0.384,0.680,0.639,��,3.9,��
2020/12/29,23:20,0.685,0.975,0.619,1.228,0.866,0.386,0.679,0.638,��,3.6,��
2020/12/29,23:30,0.685,0.975,0.621,1.230,0.865,0.385,0.680,0.640,��,3.2,��
2020/12/29,23:40,0.687,0.975,0.620,1.226,0.865,0.385,0.682,0.639,��쓌,3.8,��
2020/12/29,23:50,0.685,0.974,0.619,1.230,0.864,0.385,0.682,0.640,��,3.7,��
